DW0226 Weather Reports


Display with metric or nautical units.
time (UTC)temp
F
wind
direction
speed
MPH
gust
MPH
rain 1hr
in
rain 24hr
in
rain mn
in
humidity
%
barometer
mb
20260510130038 67 267 0.0 3.0 0.00 0.00 0.00 79 1011.8
20260510125043 65 288 1.0 3.0 0.00 0.00 0.00 80 1011.9
20260510124034 65 293 3.0 5.0 0.00 0.00 0.00 80 1012.0
20260510123027 64 269 4.0 5.0 0.00 0.00 0.00 83 1012.0
20260510122038 62 270 2.0 4.0 0.00 0.00 0.00 87 1011.9
20260510121025 62 254 2.0 4.0 0.00 0.00 0.00 91 1011.6
20260510120035 61 224 0.0 2.0 0.00 0.00 0.00 93 1011.6
20260510115025 61 224 0.0 1.0 0.00 0.00 0.00 95 1011.3
20260510114034 59 224 0.0 0.0 0.00 0.00 0.00 96 1011.2
20260510113021 59 224 0.0 1.0 0.00 0.00 0.00 95 1011.2
20260510112029 58 246 0.0 0.0 0.00 0.00 0.00 95 1011.1
20260510111020 57 281 0.0 0.0 0.00 0.00 0.00 96 1011.1
20260510110029 56 281 0.0 0.0 0.00 0.00 0.00 94 1010.9
20260510105036 56 281 0.0 0.0 0.00 0.00 0.00 95 1010.7
20260510104027 55 281 0.0 0.0 0.00 0.00 0.00 95 1010.6
20260510103035 55 281 0.0 0.0 0.00 0.00 0.00 94 1010.6
20260510102022 55 281 0.0 0.0 0.00 0.00 0.00 94 1010.4
20260510101033 55 281 0.0 0.0 0.00 0.00 0.00 95 1010.4
20260510100024 55 281 0.0 0.0 0.00 0.00 0.00 93 1010.2
20260510095031 56 281 0.0 0.0 0.00 0.00 0.00 94 1010.0
20260510094021 56 281 0.0 0.0 0.00 0.00 0.00 94 1009.9
20260510093029 56 281 0.0 0.0 0.00 0.00 0.00 94 1009.8
20260510092022 56 281 0.0 0.0 0.00 0.00 0.00 93 1009.6
20260510091048 56 273 0.0 0.0 0.00 0.00 0.00 93 1009.5
20260510090036 57 273 0.0 1.0 0.00 0.00 0.00 94 1009.6
20260510085044 57 273 0.0 0.0 0.00 0.00 0.00 94 1009.4
20260510084033 57 286 0.0 1.0 0.00 0.00 0.00 95 1009.2
20260510083021 56 223 0.0 0.0 0.00 0.00 0.00 95 1009.2
20260510082047 55 190 0.0 0.0 0.00 0.00 0.00 94 1009.1
20260510081033 55 190 0.0 0.0 0.00 0.00 0.00 94 1009.3
20260510080043 56 190 0.0 0.0 0.00 0.00 0.00 94 1009.2
20260510075055 56 190 0.0 0.0 0.00 0.00 0.00 93 1009.1
20260510074023 56 190 0.0 0.0 0.00 0.00 0.00 94 1008.9
20260510073032 56 190 0.0 0.0 0.00 0.00 0.00 93 1008.9
20260510072038 56 190 0.0 0.0 0.00 0.00 0.00 93 1008.8
20260510071029 56 190 0.0 0.0 0.00 0.00 0.00 94 1009.0
20260510070017 56 190 0.0 1.0 0.00 0.00 0.00 94 1008.9
20260510065025 55 101 0.0 0.0 0.00 0.00 0.00 93 1008.9
20260510064018 55 101 0.0 0.0 0.00 0.00 0.00 92 1008.9
20260510063046 56 101 0.0 0.0 0.00 0.00 0.00 92 1009.0
20260510062032 56 101 0.0 0.0 0.00 0.00 0.00 92 1008.9
20260510061058 56 101 0.0 0.0 0.00 0.00 0.00 92 1008.8
20260510060025 56 101 0.0 2.0 0.00 0.00 0.00 92 1008.8
20260510055035 56 101 0.0 1.0 0.00 0.00 0.00 92 1008.9
20260510054024 56 101 0.0 1.0 0.00 0.00 0.00 92 1008.8
20260510053033 56 101 0.0 1.0 0.00 0.00 0.00 91 1008.8
20260510052019 56 101 0.0 0.0 0.00 0.00 0.00 91 1008.9
20260510051033 57 101 0.0 0.0 0.00 0.00 0.00 91 1008.9
20260510050042 57 101 0.0 1.0 0.00 0.00 0.00 92 1008.9
20260510045029 57 101 0.0 1.0 0.00 0.00 0.00 92 1008.9
20260510044056 56 101 1.0 2.0 0.00 0.00 0.00 92 1008.8
20260510043027 56 101 0.0 0.0 0.00 0.00 0.00 91 1008.9
20260510042033 56 101 1.0 2.0 0.00 0.00 0.00 92 1008.8
20260510041021 56 101 0.0 0.0 0.00 0.00 0.00 91 1008.8
20260510040032 56 101 0.0 0.0 0.00 0.00 0.00 90 1008.8
20260510035023 56 101 0.0 0.0 0.00 0.00 0.00 91 1008.7
20260510034032 56 101 0.0 1.0 0.00 0.00 0.00 91 1008.8
20260510033020 56 101 0.0 1.0 0.00 0.00 0.00 90 1008.6
20260510032026 56 101 0.0 0.0 0.00 0.00 0.00 89 1008.6
20260510031041 57 101 0.0 0.0 0.00 0.00 0.00 89 1008.5
20260510030028 57 101 0.0 1.0 0.00 0.00 0.00 89 1008.4
20260510025037 58 101 0.0 0.0 0.00 0.00 0.00 89 1008.3
20260510024023 58 101 0.0 1.0 0.00 0.00 0.00 89 1008.3
20260510023037 58 101 0.0 1.0 0.00 0.00 0.00 89 1008.1
20260510022023 58 101 0.0 1.0 0.00 0.00 0.00 88 1008.0
20260510021050 59 101 0.0 1.0 0.00 0.00 0.00 88 1008.0
20260510020036 59 101 0.0 1.0 0.00 0.00 0.00 88 1007.8
20260510015027 59 101 0.0 0.0 0.00 0.00 0.00 86 1007.7
20260510014035 60 101 0.0 1.0 0.00 0.00 0.00 85 1007.8
20260510013025 60 101 0.0 1.0 0.00 0.00 0.00 85 1007.7
20260510012032 61 101 0.0 0.0 0.00 0.00 0.00 85 1007.6
20260510011025 61 101 0.0 0.0 0.00 0.00 0.00 84 1007.6
20260510010034 62 101 0.0 1.0 0.00 0.00 0.00 83 1007.4
20260510005022 63 101 0.0 1.0 0.00 0.00 0.00 82 1007.2
20260510004049 64 101 0.0 1.0 0.00 0.00 0.00 81 1007.2
20260510003023 64 101 0.0 2.0 0.00 0.00 0.00 79 1007.1
20260510002033 65 101 0.0 1.0 0.00 0.00 0.00 78 1007.1
20260510001020 66 101 0.0 2.0 0.00 0.00 0.00 76 1006.9
20260510000028 67 101 0.0 2.0 0.00 0.00 0.00 74 1006.9
20260509235018 68 101 0.0 1.0 0.00 0.00 0.00 74 1006.8
20260509234029 69 101 0.0 1.0 0.00 0.00 0.00 72 1006.7
20260509233037 70 101 1.0 3.0 0.00 0.00 0.00 70 1006.7
20260509232023 71 98 0.0 3.0 0.00 0.00 0.00 69 1006.7
20260509231035 71 98 1.0 3.0 0.00 0.00 0.00 68 1006.6
20260509230027 71 96 2.0 3.0 0.00 0.00 0.00 68 1006.6
20260509225034 71 131 1.0 5.0 0.00 0.00 0.00 68 1006.6
20260509224025 71 119 2.0 5.0 0.00 0.00 0.00 67 1006.6
20260509223033 71 87 2.0 5.0 0.00 0.00 0.00 67 1006.8
20260509222036 72 120 3.0 6.0 0.00 0.00 0.00 64 1006.8
20260509221038 73 110 3.0 7.0 0.00 0.00 0.00 63 1006.7
20260509220026 73 123 3.0 7.0 0.00 0.00 0.00 63 1007.0
20260509215037 73 144 4.0 6.0 0.00 0.00 0.00 64 1006.9
20260509214024 73 137 4.0 9.0 0.00 0.00 0.00 64 1006.7
20260509213054 73 149 3.0 9.0 0.00 0.00 0.00 64 1006.7
20260509212059 73 100 5.0 10.0 0.00 0.00 0.00 63 1006.6
20260509211029 75 98 6.0 10.0 0.00 0.00 0.00 60 1006.6
20260509210021 76 193 2.0 5.0 0.00 0.00 0.00 53 1006.4
20260509205050 75 243 1.0 4.0 0.00 0.00 0.00 57 1006.5
20260509204034 76 282 3.0 6.0 0.00 0.00 0.00 52 1006.5
20260509203026 77 266 3.0 5.0 0.00 0.00 0.00 51 1006.4
20260509202053 76 279 0.0 2.0 0.00 0.00 0.00 53 1006.6
20260509201059 73 229 0.0 2.0 0.00 0.00 0.00 58 1006.8
20260509200100 73 229 0.0 3.0 0.00 0.00 0.00 56 1006.9
20260509195035 73 229 0.0 4.0 0.00 0.00 0.00 54 1006.9
20260509194039 73 234 0.0 5.0 0.00 0.00 0.00 57 1007.0
20260509193032 74 190 1.0 4.0 0.00 0.00 0.00 54 1007.2
20260509192039 74 182 2.0 7.0 0.00 0.00 0.00 54 1007.3
20260509191025 75 198 4.0 9.0 0.00 0.00 0.00 50 1007.4
20260509190053 76 169 3.0 9.0 0.00 0.00 0.00 50 1007.6
20260509185021 76 168 2.0 7.0 0.00 0.00 0.00 52 1007.6
20260509184028 74 182 1.0 7.0 0.00 0.00 0.00 55 1007.8
20260509183055 73 115 3.0 7.0 0.00 0.00 0.00 56 1008.1
20260509182024 73 251 2.0 8.0 0.00 0.00 0.00 55 1008.4
20260509181018 73 178 3.0 7.0 0.00 0.00 0.00 56 1008.4
20260509180026 74 176 5.0 12.0 0.00 0.00 0.00 55 1008.5
20260509175054 74 172 3.0 12.0 0.00 0.00 0.00 57 1008.5
20260509174019 73 167 5.0 11.0 0.00 0.00 0.00 59 1008.8
20260509173030 72 155 4.0 10.0 0.00 0.00 0.00 59 1008.8
20260509172024 71 207 4.0 12.0 0.00 0.00 0.00 62 1008.8
20260509171030 71 228 3.0 9.0 0.00 0.00 0.00 60 1009.1
20260509170100 72 190 6.0 9.0 0.00 0.00 0.00 60 1009.1
20260509165022 71 216 2.0 12.0 0.00 0.00 0.00 61 1009.0
20260509164057 72 248 6.0 10.0 0.00 0.00 0.00 58 1009.1
20260509163023 72 246 4.0 12.0 0.00 0.00 0.00 58 1009.1
20260509162050 72 138 5.0 13.0 0.00 0.00 0.00 61 1009.3
20260509161036 71 128 6.0 14.0 0.00 0.00 0.00 62 1009.5
20260509160028 70 193 5.0 9.0 0.00 0.00 0.00 65 1009.8
20260509155034 70 242 5.0 10.0 0.00 0.00 0.00 64 1009.8
20260509154023 69 242 3.0 10.0 0.00 0.00 0.00 67 1010.0
20260509153033 69 175 3.0 10.0 0.00 0.00 0.00 67 1009.8
20260509152024 68 93 4.0 10.0 0.00 0.00 0.00 67 1009.8
20260509151031 68 261 4.0 10.0 0.00 0.00 0.00 69 1010.0
20260509150018 67 242 3.0 9.0 0.00 0.00 0.00 69 1010.1
20260509145027 66 153 2.0 9.0 0.00 0.00 0.00 69 1010.4
20260509144021 66 174 5.0 10.0 0.00 0.00 0.00 70 1010.5
20260509143031 66 150 4.0 9.0 0.00 0.00 0.00 70 1010.5
20260509142021 65 152 3.0 10.0 0.00 0.00 0.00 72 1010.7
20260509141028 65 66 1.0 8.0 0.00 0.00 0.00 73 1010.6
20260509140021 65 132 2.0 5.0 0.00 0.00 0.00 74 1010.9
20260509135030 64 173 4.0 9.0 0.00 0.00 0.00 74 1011.0
20260509134040 64 222 1.0 9.0 0.00 0.00 0.00 75 1011.0
20260509133028 63 191 4.0 12.0 0.00 0.00 0.00 74 1011.0
20260509132020 63 226 4.0 10.0 0.00 0.00 0.00 73 1011.0
20260509131026 63 252 3.0 9.0 0.00 0.00 0.00 76 1011.0